TimeCEST,TemperatureF,Dew PointF,Humidity,Sea Level PressureIn,VisibilityMPH,Wind Direction,Wind SpeedMPH,Gust SpeedMPH,PrecipitationIn,Events,Conditions,WindDirDegrees,DateUTC
12:15 AM,51.8,44.6,76,29.89,-9999.0,East,2.2,-,N/A,,Clear,100,2012-10-13 22:15:00
12:45 AM,51.8,44.6,76,29.89,-9999.0,ESE,2.2,-,N/A,,Clear,110,2012-10-13 22:45:00
1:45 AM,51.8,46.4,82,29.86,-9999.0,ESE,2.2,-,N/A,,Clear,120,2012-10-13 23:45:00
2:45 AM,51.8,46.4,82,29.86,-9999.0,ESE,2.2,-,N/A,,Clear,120,2012-10-14 00:45:00
3:15 AM,51.8,48.2,88,29.86,-9999.0,SSE,2.2,-,N/A,,Clear,160,2012-10-14 01:15:00
3:45 AM,-9999,-9999,N/A,-9999,5.0,ESE,6.7,-,N/A,,Overcast,120,2012-10-14 01:45:00
4:15 AM,50.0,48.2,94,29.83,-9999.0,SE,2.2,-,N/A,,Clear,140,2012-10-14 02:15:00
4:45 AM,50.0,48.2,94,29.83,-9999.0,SE,2.2,-,N/A,,Clear,130,2012-10-14 02:45:00
6:15 AM,50.0,48.2,94,29.83,3.1,NE,2.2,-,N/A,,Overcast,40,2012-10-14 04:15:00
6:45 AM,50.0,48.2,94,29.83,0.9,ENE,2.2,-,N/A,,Overcast,60,2012-10-14 04:45:00
7:15 AM,51.8,48.2,88,29.83,1.2,East,2.2,-,N/A,,Overcast,90,2012-10-14 05:15:00
7:45 AM,51.8,48.2,88,29.83,1.9,East,2.2,-,N/A,,Overcast,100,2012-10-14 05:45:00
8:15 AM,51.8,50.0,94,29.83,1.9,East,2.2,-,N/A,,Overcast,100,2012-10-14 06:15:00
8:45 AM,51.8,50.0,94,29.83,1.9,Calm,Calm,-,N/A,,Overcast,0,2012-10-14 06:45:00
9:15 AM,53.6,50.0,88,29.83,1.9,NNE,2.2,-,N/A,,Overcast,20,2012-10-14 07:15:00
9:45 AM,-9999,-9999,N/A,-9999,3.1,SSE,4.5,-,N/A,,Overcast,150,2012-10-14 07:45:00
10:15 AM,53.6,50.0,88,29.83,3.1,East,2.2,-,N/A,,Overcast,90,2012-10-14 08:15:00
11:15 AM,55.4,51.8,88,29.83,3.1,Calm,Calm,-,N/A,,Overcast,0,2012-10-14 09:15:00
11:45 AM,55.4,51.8,88,29.83,3.1,Calm,Calm,-,N/A,,Overcast,0,2012-10-14 09:45:00
12:15 PM,57.2,51.8,82,29.83,3.1,Calm,Calm,-,N/A,,Overcast,0,2012-10-14 10:15:00
12:45 PM,-9999,-9999,N/A,-9999,3.1,SE,4.5,-,N/A,,Overcast,140,2012-10-14 10:45:00
1:15 PM,57.2,51.8,82,29.83,3.1,SE,2.2,-,N/A,,Overcast,140,2012-10-14 11:15:00
1:45 PM,57.2,51.8,82,29.83,3.7,SE,2.2,-,N/A,,Overcast,130,2012-10-14 11:45:00
2:15 PM,57.2,51.8,82,29.83,3.7,SSW,4.5,-,N/A,,Overcast,200,2012-10-14 12:15:00
2:45 PM,57.2,51.8,82,29.80,3.7,South,2.2,-,N/A,,Overcast,190,2012-10-14 12:45:00
3:15 PM,57.2,51.8,82,29.80,3.7,Calm,Calm,-,N/A,,Overcast,0,2012-10-14 13:15:00
3:45 PM,-9999,-9999,N/A,-9999,5.0,SSE,4.5,-,N/A,,Overcast,150,2012-10-14 13:45:00
4:15 PM,59.0,51.8,77,29.80,5.0,Calm,Calm,-,N/A,,Overcast,0,2012-10-14 14:15:00
4:45 PM,57.2,51.8,82,29.80,5.0,SSE,2.2,-,N/A,,Overcast,150,2012-10-14 14:45:00
5:00 PM,-9999,-9999,N/A,-9999,5.0,SSE,4.5,-,N/A,,Overcast,150,2012-10-14 15:00:00
5:15 PM,57.2,51.8,82,29.80,5.0,SSE,4.5,-,N/A,,Overcast,150,2012-10-14 15:15:00
5:45 PM,57.2,51.8,82,29.80,5.0,SSE,2.2,-,N/A,,Overcast,160,2012-10-14 15:45:00
6:15 PM,57.2,51.8,82,29.83,5.0,SE,2.2,-,N/A,,Overcast,140,2012-10-14 16:15:00
6:45 PM,-9999,-9999,N/A,-9999,5.0,SSE,4.5,-,N/A,,Overcast,150,2012-10-14 16:45:00
7:15 PM,57.2,53.6,88,29.83,5.0,SSE,4.5,-,N/A,,Overcast,150,2012-10-14 17:15:00
7:45 PM,57.2,53.6,88,29.83,5.0,SSE,4.5,-,N/A,,Overcast,150,2012-10-14 17:45:00
8:15 PM,57.2,53.6,88,29.83,3.7,SSE,4.5,-,N/A,,Overcast,150,2012-10-14 18:15:00
8:45 PM,57.2,53.6,88,29.83,3.7,SSE,4.5,-,N/A,,Overcast,150,2012-10-14 18:45:00
9:15 PM,57.2,53.6,88,29.83,3.1,SSE,4.5,-,N/A,,Overcast,160,2012-10-14 19:15:00
9:45 PM,-9999,-9999,N/A,-9999,1.9,SSE,4.5,-,N/A,,Overcast,160,2012-10-14 19:45:00
10:15 PM,57.2,53.6,88,29.83,1.9,SSE,4.5,-,N/A,,Overcast,150,2012-10-14 20:15:00
10:45 PM,57.2,53.6,88,29.83,1.9,SSE,4.5,-,N/A,,Overcast,150,2012-10-14 20:45:00
11:15 PM,57.2,53.6,88,29.83,1.9,South,4.5,-,N/A,,Overcast,180,2012-10-14 21:15:00
11:45 PM,55.4,53.6,94,29.83,1.9,South,4.5,-,N/A,,Overcast,180,2012-10-14 21:45:00